Dickinson, ND

1:06 AM MDT on June 23, 2017 (GMT -0600)
Dickinson Municipal

Weather History for KDIK - January, 2014

Change the Weather History Date:

Wednesday, January 15, 2014

  Actual Average Record
Temperature  
Mean Temperature 32 °F 16 °F  
Max Temperature 41 °F 26 °F 58 °F (1921)
Min Temperature 22 °F 6 °F -35 °F (1907)
Degree Days  
Heating Degree Days 33 49  
Month to date heating degree days 742 735  
Since 1 July heating degree days 4397 4272  
Cooling Degree Days 0 0  
Month to date cooling degree days 0 0  
Year to date cooling degree days 0 0  
Moisture  
Dew Point 26 °F    
Average Humidity 74    
Maximum Humidity 88    
Minimum Humidity 59    
Precipitation  
Precipitation T in 0.01 in 0.38 in (1943)
Month to date precipitation 0.02 0.16  
Year to date precipitation 0.02 0.16  
Sea Level Pressure  
Sea Level Pressure 29.79 in    
Wind  
Wind Speed 24 mph (West)    
Max Wind Speed 40 mph    
Max Gust Speed 51 mph    
Visibility 10 miles    
Events Rain    
T = Trace of Precipitation, MM = Missing Value Source: NWS Daily Summary

Daily Weather History Graph

Daily Weather History Graph

Search for Another Location

Airport or City:

Trip Planner

Search our weather history database for the weather conditions in past years. The results will help you decide how hot, cold, wet, or windy it might be!

Date:

Astronomy

Jan. 15, 2014 Rise Set
Actual Time 7:31 AM MST 4:29 PM MST
Civil Twilight 6:57 AM MST 5:04 PM MST
Nautical Twilight 6:20 AM MST 5:41 PM MST
Astronomical Twilight 5:43 AM MST 6:18 PM MST
Moon 4:33 PM MST (1/15) 6:46 AM MST (1/15)
Length of Visible Light 10h 06m
Length of Day
8h 58m
Full, 100% of the Moon is Illuminated
Jan 15
Full
Jan 15
Full
Jan 23
Last Quarter
Jan 30
New
Feb 6
First Quarter

Hourly Weather History & Observations

Time (MST) Temp. Windchill Dew Point Humidity Pressure Visibility Wind Dir Wind Speed Gust Speed Precip Events Conditions
12:56 AM 23.0 °F 11.1 °F 19.9 °F 88% 30.06 in 10.0 mi South 12.7 mph - N/A   Overcast
1:56 AM 25.0 °F 15.5 °F 21.0 °F 85% 30.01 in 10.0 mi South 9.2 mph - N/A   Overcast
2:56 AM 27.0 °F 17.3 °F 21.9 °F 81% 29.96 in 10.0 mi SSW 10.4 mph - N/A   Overcast
3:56 AM 32.0 °F 20.5 °F 26.1 °F 79% 29.89 in 10.0 mi WSW 18.4 mph - N/A   Overcast
4:56 AM 33.1 °F 21.9 °F 27.0 °F 78% 29.86 in 10.0 mi WSW 18.4 mph - N/A   Overcast
5:56 AM 34.0 °F 23.4 °F 28.0 °F 79% 29.82 in 10.0 mi West 17.3 mph - N/A   Overcast
6:56 AM 35.1 °F 23.0 °F 28.0 °F 76% 29.78 in 10.0 mi West 24.2 mph - N/A   Overcast
7:56 AM 36.0 °F 25.0 °F 28.0 °F 73% 29.75 in 10.0 mi West 20.7 mph - N/A   Mostly Cloudy
8:56 AM 37.0 °F 26.2 °F 28.9 °F 73% 29.75 in 10.0 mi West 21.9 mph - N/A   Partly Cloudy
9:56 AM 37.9 °F 26.8 °F 28.9 °F 70% 29.74 in 10.0 mi West 24.2 mph - 0.00 in Rain Light Rain
10:56 AM 39.0 °F 27.8 °F 28.9 °F 67% 29.74 in 10.0 mi West 26.5 mph - 0.00 in   Mostly Cloudy
11:56 AM 39.0 °F 28.5 °F 28.9 °F 67% 29.72 in 10.0 mi West 23.0 mph - N/A   Clear
12:56 PM 39.9 °F 28.8 °F 28.9 °F 65% 29.71 in 10.0 mi West 27.6 mph 34.5 mph N/A   Clear
1:56 PM 39.9 °F 30.0 °F 30.0 °F 68% 29.68 in 10.0 mi West 21.9 mph - N/A   Partly Cloudy
2:56 PM 39.9 °F 30.0 °F 28.9 °F 65% 29.71 in 10.0 mi West 21.9 mph - N/A   Clear
3:56 PM 39.0 °F 28.8 °F 28.0 °F 65% 29.73 in 10.0 mi WNW 21.9 mph 31.1 mph N/A   Mostly Cloudy
4:56 PM 37.9 °F 26.1 °F 25.0 °F 60% 29.73 in 10.0 mi WNW 27.6 mph 41.4 mph N/A   Partly Cloudy
5:56 PM 37.0 °F 23.7 °F 24.1 °F 59% 29.73 in 10.0 mi NW 34.5 mph 51.8 mph N/A   Scattered Clouds
6:56 PM 36.0 °F 22.2 °F 23.0 °F 59% 29.74 in 10.0 mi WNW 34.5 mph 44.9 mph N/A   Partly Cloudy
7:56 PM 35.1 °F 21.4 °F 23.0 °F 61% 29.75 in 10.0 mi WNW 32.2 mph 42.6 mph N/A   Mostly Cloudy
8:56 PM 34.0 °F 19.3 °F 23.0 °F 64% 29.75 in 10.0 mi WNW 35.7 mph 49.5 mph N/A   Scattered Clouds
9:56 PM 34.0 °F 19.9 °F 23.0 °F 64% 29.78 in 10.0 mi WNW 32.2 mph 44.9 mph N/A   Overcast
10:56 PM 32.0 °F 17.0 °F 21.9 °F 66% 29.81 in 10.0 mi WNW 33.4 mph 41.4 mph N/A   Scattered Clouds
11:56 PM 32.0 °F 18.1 °F 21.9 °F 66% 29.83 in 10.0 mi WNW 27.6 mph 35.7 mph N/A   Mostly Cloudy